Showing default

COSMOS 2249, 22650

Orbit data source: Space-Track

COSMOS 2249, 22650 is a payload satellite owned by VKS (CIS) in LEO that was launched on Tue, 11 May 1993 UTC via a TSIKLON-3 launch vehicle from the Plesetsk Missile And Space Complex (PKMTR). Payload-class satellites include a variety of spacecraft equipped with specific instruments for various scientific and technological missions. These include communications satellites like Starlink; space stations such as the ISS; scientific satellites like the Hubble; Earth observation satellites from companies like Planet Labs, Umbra, and HawkEye 360; GPS; miniature CubeSats for education and research; and military/defense satellites.

Loading next visibility...
Identifier
22650, 1993-030E
Orbit
LEO
Country
Flag of CISCIS
Related business
Manufacturer
NPO PM
Mission
Defense Communications
Bus & Motor
STRELA-3, Unknown motor
Mass
225 kg wet, 225 kg dry
Launch date (UTC)
1993-05-11 (33 years ago)
Launch vehicle
TSIKLON-3
Launch site
Plesetsk Missile And Space Complex (PKMTR)
Object type
Payload
Rocket body
Debris
Shape & HBR
Cyl, 0.8 m
Radar Cross Section
1.257 m², Medium (>0.1 m² and < 1m²)

Expand to show TLE details & history
Last TLE update: 7 hours ago

TLE from 7 hours ago
0 COSMOS 2249
1 22650U 93030E   26124.75188192  .00000035  00000-0  13563-3 0  9995
2 22650  82.5883 351.1713 0008186  42.0647  29.6459 12.63186120520549
Epoch: 2026-05-04T18:02Z
TLE epoch observation values (Epoch: 2026-05-04T18:02:42.597Z)
Latitude
70.42581°
Longitude
-120.79452°
Altitude
1,416.434 km
Speed
7.161 km/s
True Right ascension
00h 50m 04s
True Declination
70° 19' 34"
Sunlit
Object was in daylight at epoch
Visualization orbit readout
Latitude
Unknown
Longitude
Unknown
Altitude
Unknown
Speed
Unknown
Apparent Right ascension
Unknown
Apparent Declination
Unknown
Sunlit
N/A
Visualization observer readout
Local Sidereal Time
09:00:10
Azimuth
Unknown
Elevation
Unknown
Doppler factor
Unknown
Orbital elements
Apogee altitude
1,413.513 km
Perigee altitude
1,400.767 km
Semi-major axis
7,785.277 km
Eccentricity
0.00082
Inclination
82.5883°
RAAN
351.1713°
Arg. of periapsis
42.0647°
True anomaly
29.69234°
Mean anomaly
29.6459°
Eccentric anomaly
29.66912°
Mean motion
3.1596 °/min
Orbital period
113.94 mins
BSTAR
0.00013563
Loading maneuver chart data...
Computing Atmospheric mass density...
Loading historical data...
Loading historical data...
Loading historical data...
Loading historical data...
Loading historical data...
Loading historical data...
Loading historical data...

Documentation

Showing up to 5 results
|